Stanley, ID

4:48 AM MST on February 11, 2016 (GMT -0700)
Stanley

Weather History for KSNT - June, 2014

Change the Weather History Date:

Monday, June 9, 2014

  Actual Average Record
Temperature  
Mean Temperature 51 °F 48 °F  
Max Temperature 73 °F 64 °F 85 °F (1977)
Min Temperature 29 °F 32 °F 23 °F (1999)
Degree Days  
Heating Degree Days 14 17  
Month to date heating degree days 142 157  
Since 1 June heating degree days 142 157  
Since 1 July heating degree days 10063 10499  
Cooling Degree Days 0 0  
Month to date cooling degree days 0 0  
Year to date cooling degree days 0 0  
Since 1 June cooling degree days 0 0  
Growing Degree Days 2 (Base 50)    
Moisture  
Dew Point 30 °F    
Average Humidity 55    
Maximum Humidity 92    
Minimum Humidity 17    
Precipitation  
Precipitation 0.00 in 0.06 in 0.85 in (1981)
Month to date precipitation 0.00 0.47  
Year to date precipitation 12.43 9.00  
Sea Level Pressure  
Sea Level Pressure 29.90 in    
Wind  
Wind Speed 5 mph (North)    
Max Wind Speed 17 mph    
Max Gust Speed 24 mph    
T = Trace of Precipitation, MM = Missing Value Source: NWS Daily Summary

Daily Weather History Graph

Daily Weather History Graph

Search for Another Location

Airport or City:

Trip Planner

Search our weather history database for the weather conditions in past years. The results will help you decide how hot, cold, wet, or windy it might be!

Date:

Astronomy

Jun. 09, 2014 Rise Set
Actual Time 5:56 AM MDT 9:22 PM MDT
Civil Twilight 5:19 AM MDT 9:58 PM MDT
Nautical Twilight 4:32 AM MDT 10:45 PM MDT
Astronomical Twilight 3:32 AM MDT 11:46 PM MDT
Moon 5:40 PM MDT (6/9) 3:34 AM MDT (6/9)
Length of Visible Light 16h 38m
Length of Day
15h 26m
Waxing Gibbous, 85% of the Moon is Illuminated
Jun 9
Waxing Gibbous
Jun 12
Full
Jun 19
Last Quarter
Jun 27
New
Jul 5
First Quarter

Hourly Weather History & Observations

Time (MDT) Temp. Windchill Dew Point Humidity Pressure Visibility Wind Dir Wind Speed Gust Speed Precip Events Conditions
12:51 AM 37.9 °F 34.4 °F 30.0 °F 73% 30.01 in - SE 4.6 mph - N/A   Unknown
1:51 AM 37.9 °F 35.5 °F 30.0 °F 73% 29.99 in - SE 3.5 mph - N/A   Unknown
2:51 AM 36.0 °F 32.1 °F 30.0 °F 79% 30.00 in - SSE 4.6 mph - N/A   Unknown
3:51 AM 32.0 °F - 28.9 °F 88% 30.02 in - Calm Calm - N/A   Unknown
4:51 AM 30.0 °F 26.5 °F 28.0 °F 92% 30.01 in - ESE 3.5 mph - N/A   Unknown
5:51 AM 32.0 °F - 28.0 °F 85% 29.99 in - Calm Calm - N/A   Unknown
6:51 AM 33.1 °F - 30.0 °F 89% 29.99 in - Calm Calm - N/A   Unknown
7:51 AM 39.9 °F - 32.0 °F 73% 29.96 in - Calm Calm - N/A   Unknown
8:51 AM 46.0 °F 43.9 °F 33.1 °F 61% 29.97 in - NNW 4.6 mph - N/A   Unknown
9:51 AM 54.0 °F - 35.1 °F 49% 29.95 in - Variable 4.6 mph - N/A   Unknown
10:51 AM 64.0 °F - 35.1 °F 34% 29.91 in - Calm Calm - N/A   Unknown
11:51 AM 68.0 °F - 32.0 °F 26% 29.88 in - North 6.9 mph - N/A   Unknown
1:51 PM 69.1 °F - 28.9 °F 22% 29.86 in - North 5.8 mph - N/A   Unknown
2:51 PM 70.0 °F - 28.9 °F 22% 29.87 in - North - - N/A   Unknown
3:51 PM 70.0 °F - 28.9 °F 22% 29.86 in - WSW 12.7 mph 24.2 mph N/A   Unknown
4:51 PM 73.0 °F - 28.9 °F 20% 29.84 in - NNW 12.7 mph - N/A   Unknown
5:51 PM 71.1 °F - 25.0 °F 18% 29.83 in - NW 13.8 mph 21.9 mph N/A   Unknown
6:51 PM 70.0 °F - 25.0 °F 18% 29.83 in - North 6.9 mph 16.1 mph N/A   Unknown
7:51 PM 69.1 °F - 25.0 °F 19% 29.79 in - NW 4.6 mph - N/A   Unknown
8:51 PM 59.0 °F - 28.9 °F 32% 29.81 in - Calm Calm - N/A   Unknown
9:51 PM 52.0 °F - 28.9 °F 41% 29.82 in - South 3.5 mph - N/A   Unknown
10:51 PM 48.9 °F - 28.9 °F 46% 29.80 in - Calm Calm - N/A   Unknown
11:51 PM 42.1 °F 40.2 °F 30.0 °F 62% 29.81 in - SE 3.5 mph - N/A   Unknown